RH
73 81 79 82 82 86 83 82 82 74 76 81 67 62 61 68 72 74 64 72 77 81 83 92 86 92 83 81 79 79 71 64 60 57 62 66 66 60 60 59 53 48 44
71 69 76 79 78 81 78 76 73 71 69 84 50 50 61 70 66 65 67 68 77 79 87 90 90 90 90 86 84 76 76 69 65 62 81 78 75 75 65 66 58 57 52
71 67 74 73 70 74 71 64 61 62 63 77 69 59 63 69 71 73 66 67 76 82 85 87 92 93 95 92 87 81 71 73 75 70 76 84 83 76 74 71 68 61 64
62 60 66 71 66 66 65 61 56 55 59 70 72 66 72 66 60 64 72 85 80 82 82 84 87 91 94 92 92 83 80 72 68 79 68 74 72 70 72 66 66 71 64
63 59 56 61 61 61 62 63 59 58 60 68 68 78 81 63 64 58 77 82 92 90 89 91 94 91 89 93 91 85 79 81 80 78 76 77 74 72 70 80 65 72 72
61 58 53 52 54 58 64 64 64 64 62 65 66 74 83 79 68 76 73 91 95 96 93 94 95 92 96 94 90 83 81 84 82 76 74 75 75 71 77 80 78 66 63
53 59 59 58 55 56 59 61 62 63 60 63 63 72 84 79 71 88 80 93 94 98 97 96 96 96 94 89 86 83 85 86 89 90 91 84 79 70 72 72 76 66 69
43 56 54 54 54 54 53 57 58 58 57 62 66 66 71 81 84 86 94 90 91 93 93 95 93 92 91 86 85 89 90 91 94 90 90 91 78 74 67 69 71 85 78
34 41 46 48 46 49 50 56 54 53 55 61 69 70 73 73 83 92 95 93 96 96 96 96 94 90 84 83 87 89 91 89 92 92 92 81 77 80 80 76 75 83 88
32 34 36 40 41 44 47 54 54 56 54 63 73 68 68 92 94 96 97 96 96 96 96 96 93 84 81 83 85 87 86 86 89 85 85 88 89 88 87 85 75 76 84
29 40 36 38 35 36 46 56 62 70 64 61 61 72 80 93 94 95 96 96 96 96 96 93 85 82 82 84 84 83 82 84 90 91 88 88 88 92 89 84 80 79 79
31 32 36 42 46 41 60 65 68 81 73 69 75 80 88 93 96 97 95 96 97 94 90 85 82 79 81 85 83 82 74 82 91 93 88 84 73 86 89 89 84 84 74
28 37 40 41 46 52 56 61 73 71 68 70 80 94 96 91 95 97 98 97 94 87 84 84 83 82 85 83 79 75 86 93 92 88 89 85 86 89 87 84 82 78 66
22 41 46 46 49 54 65 66 72 73 73 75 91 97 97 97 97 97 97 96 93 90 88 85 84 86 84 80 82 89 92 90 87 87 85 88 89 88 86 88 91 83 91
23 28 46 53 58 65 79 80 87 87 87 92 96 98 97 95 94 94 94 92 89 86 88 85 86 84 85 85 90 87 89 86 84 84 84 87 87 86 90 86 91 92 89
20 20 30 56 62 69 81 78 84 89 89 94 96 91 90 90 92 93 92 90 88 85 84 86 89 90 79 96 90 84 86 80 81 90 86 85 88 89 88 87 87 90 90
26 31 40 60 65 76 76 85 83 82 83 85 85 86 86 89 90 88 84 82 89 92 94 93 91 88 86 89 88 89 90 89 89 91 90 91 75 79 78 81 82 82 80
40 48 67 79 79 78 77 76 72 75 75 74 76 73 73 74 72 74 80 90 93 92 94 93 90 90 83 91 90 91 90 93 92 93 92 87 85 83 82 88 90 86 83
57 70 77 76 80 76 73 71 71 69 70 74 74 70 69 70 76 81 87 89 91 93 92 92 93 87 84 90 93 94 94 88 89 83 82 79 82 84 76 78 78 68 65
61 66 69 69 71 72 67 68 69 70 71 70 68 66 69 74 81 84 87 90 87 82 89 88 88 90 90 87 87 87 95 89 94 84 79 80 78 79 77 76 78 84 77
58 62 63 67 67 62 62 66 68 72 68 68 71 76 78 82 84 83 86 88 88 85 87 83 86 83 84 82 77 75 84 93 93 88 86 85 75 69 67 73 85 88 83
57 58 63 66 65 62 61 68 72 70 70 76 78 76 75 70 75 86 84 74 76 83 88 90 95 92 89 78 73 70 71 72 87 84 87 90 69 69 78 84 83 82 88
59 58 63 66 66 63 60 68 74 73 73 75 78 78 68 65 60 60 72 77 82 82 85 84 92 96 94 90 73 68 68 72 88 87 76 72 75 79 87 75 72 83 84
58 61 65 69 70 65 63 70 72 70 72 64 56 59 58 61 57 58 66 72 82 84 84 84 89 93 92 90 83 78 88 83 79 82 84 85 87 92 88 81 76 80 82
57 62 68 72 72 68 69 68 70 60 51 55 59 62 65 61 66 71 66 70 77 80 84 90 87 94 96 81 72 71 79 91 80 90 95 93 92 82 83 80 79 81 81
65 65 69 68 68 67 69 68 61 57 62 60 64 77 75 64 56 67 68 72 69 69 68 75 83 82 74 65 64 63 64 64 69 93 97 97 97 92 84 89 86 84 85
Wind_Speed
15 15 14 12 11 10 12 13 12 14 11 8 10 8 9 6 3 4 8 8 8 7 6 4 4 5 5 5 6 4 5 2 2 3 2 2 3 5 4 4 4 5 6
16 17 16 16 15 15 14 14 14 14 11 6 10 7 7 3 6 6 7 10 11 9 6 6 5 7 4 5 6 5 2 2 3 4 2 2 3 2 4 3 4 6 5
19 19 19 19 16 17 17 16 17 18 13 9 5 6 5 4 3 4 6 8 11 10 9 9 7 6 4 4 5 6 7 4 2 3 5 1 4 1 3 5 4 5 5
19 19 20 19 18 17 16 18 18 19 15 13 10 14 11 9 7 6 5 6 10 9 10 9 8 8 7 5 5 6 4 5 4 1 1 3 4 2 3 3 3 4 5
22 22 22 22 21 18 18 18 19 19 19 16 16 13 13 9 8 9 7 8 6 8 7 7 7 5 7 6 6 5 5 4 4 4 2 1 2 3 3 3 4 1 4
23 23 23 21 21 20 19 20 22 23 22 22 22 18 14 12 9 9 9 6 4 4 8 5 6 6 6 6 6 5 6 5 4 3 3 2 2 3 3 3 5 4 4
24 23 24 22 21 23 23 21 24 24 23 22 21 20 16 14 15 7 10 7 5 3 6 8 6 5 6 6 6 6 7 7 5 5 4 1 2 1 2 2 3 3 3
23 25 26 25 25 27 25 24 23 22 22 21 21 17 17 14 12 9 6 8 8 9 7 6 4 5 6 6 6 5 5 6 6 7 4 1 2 1 3 2 1 3 2
20 24 24 25 24 25 26 25 24 22 19 20 19 18 19 11 10 8 6 7 5 4 6 7 7 7 7 7 8 7 7 7 5 7 6 4 3 1 2 3 3 4 4
16 19 22 24 23 25 23 24 25 25 25 18 18 18 18 8 7 8 9 8 5 6 7 6 6 7 7 8 8 7 6 6 4 3 6 3 2 3 2 4 4 2 4
9 9 12 16 21 19 17 15 7 6 12 16 15 15 11 9 8 8 8 9 7 8 7 7 8 8 8 8 8 8 8 6 7 5 5 2 2 3 3 3 3 3 3
8 6 8 8 8 17 12 15 17 18 19 11 9 10 9 10 4 7 8 8 8 8 9 9 8 8 8 8 8 7 8 9 8 7 6 2 1 3 4 4 6 5 5
9 7 5 5 6 7 21 19 16 20 16 12 10 9 11 16 9 7 6 7 9 8 8 8 8 9 10 10 8 8 8 8 8 7 4 2 2 4 5 7 7 6 7
9 8 6 7 6 7 9 15 18 20 17 18 14 9 10 12 11 9 8 7 6 7 7 7 8 8 8 8 8 8 8 9 6 5 4 4 5 6 7 7 7 7 5
7 8 8 7 7 8 9 10 7 10 13 13 12 11 12 11 12 11 9 8 7 7 7 8 8 8 8 7 8 8 8 7 5 4 5 5 6 11 11 8 9 6 7
9 8 9 7 8 10 10 10 9 9 10 12 13 13 13 12 11 11 10 9 8 8 8 7 8 8 5 13 12 8 6 5 5 4 4 5 8 10 14 15 15 11 7
8 9 9 11 8 11 13 11 11 10 11 11 11 12 12 11 11 11 10 9 8 7 7 7 7 7 7 12 11 10 5 5 4 4 4 5 6 7 6 9 10 9 10
9 8 10 8 10 10 13 13 13 12 11 10 10 11 12 12 11 12 11 9 7 7 6 6 6 6 4 11 10 9 5 3 2 3 3 2 3 5 9 8 8 8 8
7 6 7 11 9 11 11 14 13 12 13 12 11 10 12 12 11 11 10 8 8 6 5 5 7 7 6 10 9 7 4 3 4 3 4 5 5 9 15 10 11 13 12
8 10 10 10 12 9 11 13 12 13 12 11 11 11 10 11 11 10 9 5 7 7 6 6 6 10 9 12 12 8 4 5 4 5 4 7 7 12 14 11 10 13 13
10 9 10 10 9 10 12 12 10 10 10 11 10 10 11 11 10 9 6 6 6 6 6 7 8 9 10 11 16 13 5 2 0 1 3 3 11 16 19 18 9 11 14
11 9 10 8 7 9 12 10 9 8 11 12 12 13 12 9 8 9 5 7 9 8 6 9 7 6 7 12 14 13 10 7 3 4 3 4 16 17 17 14 16 18 12
9 7 9 8 7 8 10 11 8 12 12 11 11 9 8 8 8 8 7 7 7 7 5 7 8 6 5 5 12 13 12 9 3 2 8 15 16 15 8 11 16 10 8
8 7 10 8 7 8 11 12 12 11 10 8 8 6 8 8 7 7 7 7 5 5 5 5 6 6 4 3 4 4 3 4 4 5 6 8 9 5 3 5 7 6 7
6 9 9 8 8 12 12 11 10 9 10 8 6 6 6 9 9 8 6 7 4 5 6 4 4 4 4 4 5 5 3 2 4 4 2 3 2 5 5 5 6 7 8
7 10 10 11 10 11 9 8 8 9 9 9 6 5 5 6 7 8 8 12 12 14 14 12 9 6 9 5 6 7 8 10 11 1 2 3 3 5 6 6 7 6 8
Wind_Direction
155 160 161 157 155 154 149 154 163 167 160 177 185 197 206 217 206 204 210 204 204 202 192 204 171 176 178 188 188 160 182 162 154 92 18 270 241 208 180 180 192 164 187
154 156 160 169 177 169 168 168 175 191 190 191 190 192 201 212 205 210 214 210 200 199 182 195 192 182 190 195 192 165 143 173 166 141 101 314 339 330 225 188 192 197 188
168 167 168 179 173 177 176 175 177 188 205 195 189 209 232 257 210 226 222 215 196 181 183 196 182 179 183 210 191 169 156 182 214 177 145 117 217 332 323 233 195 208 209
174 173 175 178 181 186 181 177 181 189 199 195 199 209 219 218 215 213 215 195 184 188 193 203 197 173 185 202 193 183 160 143 177 45 133 123 138 166 314 309 234 192 218
178 181 184 181 188 185 187 186 185 191 197 200 204 210 217 220 202 204 195 195 179 190 198 201 211 195 184 177 193 180 178 163 150 148 141 89 165 181 176 265 269 269 223
183 187 186 185 189 187 190 189 194 196 199 197 207 210 206 215 207 202 198 183 180 160 181 219 224 174 173 180 185 183 161 134 119 97 69 124 130 228 183 219 249 216 266
182 186 187 192 191 196 193 195 197 198 198 200 205 206 205 214 219 190 189 172 165 162 203 204 203 186 174 160 141 137 131 135 138 120 106 276 276 179 125 226 251 248 289
182 185 190 193 193 196 200 197 198 201 199 202 207 204 206 198 196 199 189 177 183 183 186 174 195 152 141 146 130 119 119 121 123 123 148 225 233 188 201 196 244 309 283
187 187 190 194 196 192 194 191 196 202 200 205 200 208 219 205 196 168 174 171 161 156 159 171 151 161 144 141 136 139 141 147 141 151 180 187 177 71 302 317 243 192 266
188 189 191 196 199 200 194 190 192 195 199 188 191 202 210 155 156 154 156 159 160 152 161 160 167 150 142 143 138 140 140 141 142 152 144 139 81 339 333 285 288 251 217
148 170 205 208 208 203 195 184 169 297 223 206 205 192 177 164 158 149 167 156 156 157 161 160 150 148 150 152 145 152 150 147 123 135 112 116 56 311 285 273 270 266 223
176 178 140 146 174 202 164 187 173 178 216 217 194 196 170 118 195 157 168 150 156 158 157 157 150 154 156 157 151 145 148 143 148 137 181 203 298 301 274 270 263 257 249
160 184 155 131 125 125 178 186 184 199 214 227 188 177 176 180 170 147 137 142 146 157 146 147 158 159 157 157 150 142 139 139 158 188 149 165 233 276 281 274 267 261 262
175 174 172 170 157 113 129 169 187 194 191 201 172 154 146 140 130 124 116 115 144 138 139 152 154 149 142 134 135 132 148 169 171 152 168 213 230 250 272 283 277 272 260
170 175 178 179 159 124 103 103 129 143 158 146 136 130 120 114 113 116 113 117 119 120 122 121 112 124 134 138 142 154 162 159 160 199 209 222 243 259 268 272 268 260 266
177 178 153 155 139 124 112 105 101 99 115 118 119 120 120 125 125 124 128 126 121 117 118 119 129 128 130 141 148 142 138 172 201 198 236 262 273 277 275 275 266 247 245
166 167 140 151 143 133 127 119 109 108 104 110 118 117 113 118 119 125 118 118 112 112 111 115 122 130 125 152 147 134 144 153 193 222 245 276 282 306 353 350 342 329 303
156 137 130 120 129 125 122 119 117 112 108 99 105 114 115 112 110 108 113 111 116 123 129 133 141 142 155 159 156 155 151 166 247 274 294 298 343 345 351 348 334 324 313
136 123 123 128 118 123 125 119 122 119 119 123 125 125 121 122 122 126 128 131 130 132 143 138 125 135 151 157 148 132 136 103 76 58 11 8 351 5 357 345 326 316 304
130 126 124 120 126 129 125 124 127 130 134 135 130 130 131 127 127 132 138 128 132 134 132 136 128 109 92 92 96 91 87 68 22 5 2 356 349 339 338 327 316 306 302
131 118 119 128 134 124 122 126 130 133 130 128 128 123 125 128 133 129 129 134 130 116 112 97 101 95 97 85 86 83 78 103 63 356 337 322 330 327 321 318 302 287 298
133 128 125 129 127 124 125 125 126 125 119 117 120 126 131 135 130 138 140 126 128 122 119 109 104 96 97 96 86 78 70 55 43 358 328 311 321 320 322 323 317 323 309
136 124 128 127 124 117 128 121 120 117 118 120 125 132 134 135 138 137 128 118 119 122 131 122 129 123 94 79 67 52 40 32 22 333 324 321 317 318 319 346 344 337 332
144 126 126 127 119 112 115 122 123 124 123 121 127 118 116 116 89 86 90 96 94 96 97 99 107 117 99 78 55 40 21 9 346 322 314 297 294 300 333 347 337 336 335
129 127 122 114 104 113 117 122 130 123 125 124 109 113 94 96 89 78 97 101 72 111 116 107 114 113 100 66 39 8 355 303 310 299 293 300 338 355 347 338 331 338 339
125 120 119 118 112 111 112 123 123 122 116 107 96 81 93 102 99 100 85 72 97 100 103 107 111 94 109 80 14 352 346 340 330 339 312 330 356 358 341 341 342 338 336